{"data":{"norad_id":57091,"epoch":"2026-09-19T22:59:40.992576Z","epoch_age_seconds":167737,"freshness":"FRESH","line1":"1 57091U 23088AV  26262.95811334  .00000270  00000+0  19356-4 0  9991","line2":"2 57091  43.0032  78.7850 0001582 267.3799  92.6872 15.27578312180217","mean_motion":15.27578312,"eccentricity":0.0001582,"inclination_deg":43.0032,"raan_deg":78.785,"arg_perigee_deg":267.3799,"mean_anomaly_deg":92.6872,"bstar":1.9356e-5,"rev_number":18021,"period_min":94.266852880011,"perigee_km":481.96871008355,"apogee_km":484.13959096357,"semimajor_km":6861.1911505236,"source":"CELESTRAK","updated_at":"2026-09-21T09:00:33.556924Z"}}